Location: Unspecified
(0.0000°N, 0.0000°E)
Time: 22:10:46
(UTC+00:00)

Transit 2A Rocket - All Passes

Search period start: 22 May 2015 00:00
Search period end: 01 June 2015 00:00
Orbit: 586 x 920 km, 66.7° (Epoch: 22 May)

Date Brightness Start Highest point End Pass type
(mag) Time Alt. Az. Time Alt. Az. Time Alt. Az.
22 May - 01:10:57 10° NW 01:14:59 30° WSW 01:18:46 10° S night (unlit)
22 May - 11:56:36 10° S 12:01:53 41° ESE 12:07:33 10° NE daylight
22 May - 13:40:56 10° WSW 13:44:37 16° WNW 13:48:01 10° NNW daylight
23 May - 00:28:22 10° NNW 00:32:58 73° WSW 00:37:17 10° SSE night (unlit)
23 May - 11:15:42 10° SSE 11:19:48 21° ESE 11:24:18 10° ENE daylight
23 May - 12:57:13 10° SW 13:02:21 32° WNW 13:07:36 10° N daylight
23 May - 23:46:30 10° N 23:50:55 46° ENE 23:55:06 10° SE night (unlit)
24 May - 12:14:32 10° SSW 12:20:13 62° WNW 12:26:12 10° N daylight
24 May - 23:05:28 10° NNE 23:08:46 20° ENE 23:12:05 10° ESE night (unlit)
25 May - 00:48:16 10° WNW 00:51:13 17° WSW 00:53:53 10° SSW night (unlit)
25 May - 11:32:28 10° SSW 11:38:09 68° ESE 11:44:11 10° NNE daylight
26 May - 00:04:55 10° NW 00:09:10 38° WSW 00:13:10 10° S night (unlit)
26 May - 10:51:01 10° S 10:56:06 34° ESE 11:01:33 10° NE daylight
26 May - 12:34:29 10° WSW 12:38:46 20° WNW 12:42:53 10° NNW daylight
26 May - 23:22:33 10° NNW 23:27:08 87° ENE 23:31:28 10° SSE night (unlit)
27 May - 10:10:26 10° SSE 10:13:59 17° ESE 10:17:59 10° ENE daylight
27 May - 11:51:10 10° SW 11:56:32 38° WNW 12:02:05 10° N daylight
27 May - 22:40:54 10° N 22:45:05 35° ENE 22:49:04 10° SE night (unlit)
28 May - 11:08:40 10° SSW 11:14:26 75° WNW 11:20:30 10° NNE daylight
28 May - 22:00:15 10° NNE 22:02:53 16° ENE 22:05:39 10° ESE night (unlit)
28 May - 23:41:56 10° WNW 23:45:23 21° WSW 23:48:34 10° SSW night (unlit)
29 May - 10:26:45 10° S 10:32:22 56° ESE 10:38:20 10° NNE daylight
29 May - 12:12:53 10° W 12:15:13 12° WNW 12:17:03 10° NW daylight
29 May - 22:58:56 10° NW 23:03:20 49° WSW 23:07:29 10° S night (unlit)
30 May - 09:45:29 10° SSE 09:50:18 29° ESE 09:55:29 10° NE daylight
30 May - 11:28:11 10° WSW 11:32:55 24° WNW 11:37:35 10° NNW daylight
30 May - 22:16:47 10° NNW 22:21:18 67° ENE 22:25:35 10° SSE night (unlit)
31 May - 09:05:22 10° SE 09:08:09 14° ESE 09:11:26 10° ENE daylight
31 May - 10:45:08 10° SW 10:50:43 46° WNW 10:56:31 10° N daylight
31 May - 21:35:21 10° N 21:39:12 28° ENE 21:42:57 10° SE night (unlit)
31 May - 23:20:08 10° W 23:21:38 11° WSW 23:22:48 10° SW night (unlit)
